Погода в Ягодной

Россия / Курганская область     56°05′35″N   65°05′06″E
темп.,
°C
ветер,
м/с
пор.,
м/с
влажн.,
%
обл.,
%
осадки,
мм/ч
давл.,
гПа
погр.,
м
7 мая, пт
пт723:00+7зсз38530 0.0 1015175
02:00+5з37590 0.0 1017121
05:00+4зсз34650 0.0 101962
08:00+10з45492 0.0 1020357
11:00+14з5636100 0.0 10201127
14:00+18з56325 0.0 10201493
17:00+19з45345 0.0 10191629
20:00+15юз22485 0.0 101911
8 мая, сб
сб823:00+12юз33535 0.0 102017
02:00+11ююз33545 0.0 102020
05:00+10юз225871 0.0 102010
08:00+15ююз224348 0.0 1020192
11:00+19ю2232100 0.0 10191703
14:00+20юв2226100 0.0 10182239
17:00+20вюв222566 0.0 10172280
20:00+17всв113549 0.0 101711
9 мая, вс
вс923:00+14всв2238100 0.0 101710
02:00+13св334498 0.0 101641
05:00+12св3346100 0.0 101641
08:00+15св2550100 0.0 1016149
11:00+19всв5734100 0.0 1016720
14:00+22всв792933 0.0 10152716
17:00+22св7102979 0.0 10152715
20:00+18св71344100 0.0 1016389
10 мая, пн
пн1023:00+16всв5125376 0.0 1017293
02:00+13св41061100 0.0 1018187
05:00+11св4869100 0.0 1019145
08:00+16всв465176 0.0 1020409
11:00+20св473694 0.0 10202157
14:00+22ссв672985 0.0 10192623
17:00+21ссв67220 0.0 10192339
20:00+17св33430 0.0 102036
11 мая, вт
вт1123:00+13юв22530 0.0 102121
02:00+11юз22580 0.0 102118
05:00+10з22640 0.0 102118
08:00+16с224792 0.0 1021225
11:00+20с1232100 0.0 10211090
14:00+22зсз3430100 0.0 10202274
17:00+21сз6538100 0.0 10201115
20:00+17ссз5962100 0.0 1021451